Jackson, KY

11:59 AM EST on November 12, 2019 (GMT -0500)
Carroll

Weather History for KJKL - October, 2019

Change the Weather History Date:

Monday, October 21, 2019

  Actual Average Record
Temperature  
Mean Temperature 66 °F 57 °F  
Max Temperature 77 °F 67 °F 83 °F (2007)
Min Temperature 55 °F 47 °F 33 °F (2006)
Degree Days  
Heating Degree Days 0 9  
Month to date heating degree days 105 142  
Since 1 July heating degree days 105 194  
Cooling Degree Days 1 1  
Month to date cooling degree days 78 27  
Year to date cooling degree days 1579 1148  
Growing Degree Days 16 (Base 50)    
Moisture  
Dew Point 57 °F    
Average Humidity 83    
Maximum Humidity 100    
Minimum Humidity 48    
Precipitation  
Precipitation 0.06 in 0.10 in 1.87 in (1985)
Month to date precipitation 2.94 2.09  
Year to date precipitation 42.40 39.10  
Snow  
Snow 0.00 in 0.00 in 0.00 in (2002)
Month to date snowfall 0.0 0.0  
Since 1 July snowfall 0.0 0.0  
Since 1 September snowfall 0.0 0.0  
Snow Depth 0.00 in    
Sea Level Pressure  
Sea Level Pressure 29.89 in    
Wind  
Wind Speed 3 mph ()    
Max Wind Speed 12 mph    
Max Gust Speed 26 mph    
Visibility 9.7 miles    
Events Rain    
T = Trace of Precipitation, MM = Missing Value Source: Averaged Metar Reports

Daily Weather History Graph

Daily Weather History Graph

Search for Another Location

Airport or City:

Astronomy

Oct. 21, 2019 Rise Set
Actual Time 7:47 AM EDT 6:48 PM EDT
Civil Twilight 7:20 AM EDT 7:14 PM EDT
Nautical Twilight 6:49 AM EDT 7:45 PM EDT
Astronomical Twilight 6:19 AM EDT 8:15 PM EDT
Moon 12:01 AM EDT (10/21) 3:00 PM EDT (10/21)
Length of Visible Light 11h 54m
Length of Day
11h 01m
Waning Gibbous, 48% of the Moon is Illuminated
Oct 21
Waning Gibbous
Oct 27
New
Nov 4
First Quarter
Nov 12
Full
Nov 19
Last Quarter

Hourly Weather History & Observations

Time (EDT) Temp. Dew Point Humidity Pressure Visibility Wind Dir Wind Speed Gust Speed Precip Events Conditions
12:53 AM 57.9 °F 57.9 °F 100% 29.98 in 10.0 mi East 3.5 mph - N/A   Scattered Clouds
1:53 AM 57.0 °F 57.0 °F 100% 29.97 in 10.0 mi Variable 3.5 mph - N/A   Clear
2:35 AM 57.0 °F 57.0 °F 100% 29.98 in 5.0 mi Calm Calm - N/A   Scattered Clouds
2:53 AM 57.0 °F 57.0 °F 100% 29.96 in 10.0 mi Calm Calm - N/A   Scattered Clouds
3:53 AM 57.0 °F 57.0 °F 100% 29.94 in 10.0 mi ESE 3.5 mph - N/A   Partly Cloudy
4:34 AM 57.0 °F 57.0 °F 100% 29.94 in 10.0 mi Variable 3.5 mph - N/A   Mostly Cloudy
4:53 AM 55.9 °F 55.9 °F 100% 29.93 in 10.0 mi Variable 4.6 mph - N/A   Mostly Cloudy
5:33 AM 55.9 °F 55.9 °F 100% 29.94 in 10.0 mi SE 4.6 mph - N/A   Scattered Clouds
5:53 AM 55.9 °F 55.9 °F 100% 29.91 in 10.0 mi SE 4.6 mph - N/A   Clear
6:53 AM 55.9 °F 55.9 °F 100% 29.92 in 10.0 mi SE 4.6 mph - N/A   Clear
7:53 AM 55.0 °F 55.0 °F 100% 29.91 in 10.0 mi SSE 4.6 mph - N/A   Clear
8:53 AM 55.9 °F 55.9 °F 100% 29.91 in 10.0 mi SE 5.8 mph - N/A   Clear
9:53 AM 57.9 °F 55.9 °F 93% 29.91 in 10.0 mi SE 5.8 mph - N/A   Clear
10:53 AM 64.0 °F 59.0 °F 84% 29.89 in 10.0 mi Variable 3.5 mph - N/A   Clear
11:53 AM 71.1 °F 60.1 °F 68% 29.87 in 10.0 mi North - - N/A   Clear
12:53 PM 75.0 °F 60.1 °F 60% 29.86 in 10.0 mi Calm Calm - N/A   Clear
1:53 PM 75.9 °F 57.0 °F 52% 29.84 in 10.0 mi Variable 5.8 mph - N/A   Scattered Clouds
2:53 PM 75.9 °F 55.0 °F 48% 29.83 in 10.0 mi Variable 6.9 mph - N/A   Scattered Clouds
3:53 PM 75.0 °F 55.9 °F 51% 29.84 in 10.0 mi North - - N/A   Partly Cloudy
4:53 PM 73.0 °F 55.9 °F 55% 29.83 in 10.0 mi North - - N/A   Scattered Clouds
5:53 PM 72.0 °F 55.0 °F 55% 29.83 in 10.0 mi Variable 5.8 mph - N/A   Clear
6:53 PM 71.1 °F 55.9 °F 59% 29.83 in 10.0 mi Variable 5.8 mph - N/A   Mostly Cloudy
7:53 PM 70.0 °F 57.0 °F 63% 29.84 in 10.0 mi Variable 4.6 mph - N/A   Mostly Cloudy
8:53 PM 69.1 °F 57.9 °F 68% 29.88 in 10.0 mi WSW 4.6 mph - 0.00 in Rain Light Rain
9:53 PM 61.0 °F 61.0 °F 100% 29.87 in 7.0 mi Variable 4.6 mph - 0.03 in Rain Light Rain
10:53 PM 61.0 °F 61.0 °F 100% 29.86 in 10.0 mi Calm Calm - 0.01 in Rain Light Rain
11:53 PM 62.1 °F 61.0 °F 96% 29.81 in 10.0 mi SSE 3.5 mph - 0.01 in Rain Light Rain